Regional Weather Roundup
Issued by NWS

Home | Current Version | Previous Version | Graphics & Text | Print | Product List | Glossary On
Versions: 1 2 3 4 5 6 7 8 9 10 11 12 13 14 15 16 17 18 19 20 21 22 23 24 25 26 27 28 29 30 31 32 33 34 35 36 37 38 39 40 41 42 43 44 45 46 47 48 49 50
000
ASUS43 KDTX 300910
RWRMI
MICHIGAN HOURLY REGIONAL WEATHER ROUNDUP
NATIONAL WEATHER SERVICE DETROIT/PONTIAC MI
500 AM EDT FRI SEP 30 2016

NOTE: "FAIR" INDICATES FEW OR NO CLOUDS BELOW 12,000 FEET WITH NO
SIGNIFICANT WEATHER AND/OR OBSTRUCTION TO VISIBILITY.

MIZ047>049-052>055-059>063-066>070-074>076-081>083-301000-
SOUTHEAST LOWER MICHIGAN

CITY           SKY/WX    TMP DP  RH WIND       PRES   REMARKS
ADRIAN         LGT RAIN  61  61 100 E12       30.13S FOG
ALMA           LGT RAIN  59  59  99 NE9       30.21F
ANN ARBOR      CLOUDY    60  60 100 NE8       30.15R
BAD AXE        LGT RAIN  59  55  87 E6        30.26R
CARO           CLOUDY    59  57  92 E8        30.22R
DETROIT CITY   LGT RAIN  60  60 100 E12       30.17S
DETROIT        LGT RAIN  62  61  96 E12       30.16R
FLINT          LGT RAIN  58  57  97 E10       30.20R
GROSSE ILE     LGT RAIN  62  60  93 MISG      30.14S
HILLSDALE      DRIZZLE   59  57  94 NE7       30.13R
HOWELL         LGT RAIN  59  58  96 E12       30.17S

CITY           SKY/WX    TMP DP  RH WIND       PRES   REMARKS
JACKSON        CLOUDY    59  59 100 E9        30.16R
LAMBERTVILLE   LGT RAIN  64  60  86 E7        30.12S
LANSING        LGT RAIN  59  56  89 NE9       30.18S
LAPEER         CLOUDY    57  57 100 E8        30.22R
MASON          LGT RAIN  58  57  96 NE5       30.16S
MONROE         CLOUDY    63  61  94 E16G28    30.13R
MT. CLEMENS    LGT RAIN  60  59  97 E14       30.17R
PONTIAC        RAIN      58  56  93 E13       30.17R FOG
PORT HURON     RAIN      57  57 100 E8        30.22R
TRI CITIES     LGT RAIN  60  58  92 NE14      30.23F
MIDLAND        CLOUDY    59  58  96 NE9G16    30.22S FOG
TROY           LGT RAIN  60  58  92 NE12      30.19F
SAGINAW HB     DRIZZLE   59  55  88 NE9       30.21F
$$
MIZ043>046-050>051-056>058-064>065-071>073-077>080-301000-
SOUTHWEST LOWER MICHIGAN

CITY           SKY/WX    TMP DP  RH WIND       PRES   REMARKS
BATTLE CREEK   CLOUDY    59  59 100 NE8       30.16R FOG
BENTON HARBOR  CLOUDY    61  56  83 NE10      30.14S
BIG RAPIDS     LGT RAIN  58  57  97 NE7       30.24S
COLDWATER      CLOUDY    59  59 100 NE13      30.13F
FREMONT        LGT RAIN  57  57  99 NE6       30.22F
HOLLAND        CLOUDY    60  56  86 NE8       30.17F
GRAND RAPIDS   LGT RAIN  58  56  93 NE10      30.19F
IONIA          LGT RAIN  57  56  97 NE10      30.18S
KALAMAZOO      LGT RAIN  60  56  86 NE7       30.15S
LUDINGTON      CLOUDY    59  55  87 NE10      30.24S
MARSHALL       CLOUDY    59  58  98 CALM      30.15S FOG
MOUNT PLEASANT LGT RAIN  58  57  97 NE7       30.23S
MUSKEGON       LGT RAIN  60  57  89 NE10      30.20F
SOUTH HAVEN    CLOUDY    61  59  92 E7        30.16S
$$
MIZ016>042-301000-
NORTHERN LOWER MICHIGAN

CITY           SKY/WX    TMP DP  RH WIND       PRES   REMARKS
ALPENA         CLOUDY    61  54  77 E8        30.33F
BEAVER ISLAND  CLEAR     58  55  89 E8        30.36R
BELLAIRE       CLOUDY    60  55  81 NE6       30.31F
CADILLAC       CLOUDY    56  55  94 NE10G16   30.26F
CHARLEVOIX     CLOUDY    60  55  81 E10       30.35S
FRANKFORT      MOCLDY    61  54  76 E6        30.28S
GAYLORD        CLOUDY    58  53  84 NE8       30.32F
GRAYLING       CLOUDY    58  55  88 NE8       30.31S
HARBOR SPRINGS CLOUDY    60  55  83 E10       30.34R
HOUGHTON LAKE  CLOUDY    57  55  93 NE10      30.29S FOG
MANISTEE       CLOUDY    59  55  87 E10       30.26F
OSCODA         CLOUDY    61  54  78 E13       30.29S
PELLSTON       MOCLDY    60  54  80 NE9       30.35S
ROGERS CITY    CLOUDY    61  55  80 E7        30.36S
TRAVERSE CITY  CLOUDY    62  55  77 E10       30.29S
$$
MIZ007>008-015-301000-
EASTERN UPPER MICHIGAN

CITY           SKY/WX    TMP DP  RH WIND       PRES   REMARKS
KINROSS        CLEAR     54  50  86 NE10      30.38F
MACKINAC ISLAN CLEAR     58  53  85 NE12      30.36R
NEWBERRY       CLEAR     49  49  97 N3        30.38S
S. S. MARIE    CLEAR     55  50  83 E6        30.39S
MUNISING         N/A     49  48  97 CALM      30.38F
$$
MIZ004>006-011>014-085-301000-
CENTRAL UPPER MICHIGAN

CITY           SKY/WX    TMP DP  RH WIND       PRES   REMARKS
MANISTIQUE     MOCLDY    50  48  93 N3        30.37R
ESCANABA       CLEAR     56  52  86 NE7       30.36S
MENOMINEE      CLOUDY    55  53  93 N7        30.34S
SAWYER-GWINN   CLEAR     52  51  97 N8        30.39F
$$
MIZ001>003-009>011-084-301000-
WESTERN UPPER MICHIGAN

CITY           SKY/WX    TMP DP  RH WIND       PRES   REMARKS
IRON MOUNTAIN  CLEAR     47  45  93 N7        30.37F
HOUGHTON       CLEAR     53  49  86 E6        30.43R
COPPER HARBOR    N/A     54  53  97 CALM      30.44R
IRONWOOD       CLOUDY    51  49  92 E7        30.45S
$$

ABBREVIATIONS USED IN REMARKS
   TC - TEMPERATURE IN CELSIUS
  WCI - WIND CHILL INDEX
   HX - HEAT INDEX
  VSB - VISIBILITY




USA.gov is the U.S. government's official web portal to all federal, state and local government web resources and services.